CAPE
0 0 0 0 0 0 0 0 0 0 0 0 0 0 0 0 0 0 0 0 71 144 164 610 914 1031 814 627 549 504 436 172 143 45 17 22 27 22 6 0 30 22 31 16 16 52 33 18 30
0 0 0 0 0 0 0 0 0 0 0 0 0 0 0 0 0 20 20 0 7 263 431 608 876 1048 822 669 611 479 281 278 283 252 30 20 10 12 9 10 16 11 11 17 15 30 17 11 18
0 0 0 0 0 0 0 0 0 0 0 0 0 0 0 0 0 0 24 56 89 170 292 501 774 991 795 497 465 524 373 329 396 297 34 9 12 13 9 14 12 18 9 13 18 27 8 1 20
0 0 0 0 0 0 0 0 0 0 0 0 0 0 0 0 0 2 37 37 38 105 188 562 804 920 717 530 320 377 402 338 212 233 90 14 5 18 14 22 19 29 14 12 22 15 0 0 13
0 0 0 0 0 0 0 0 0 0 0 0 0 0 0 0 0 0 7 8 13 72 137 384 674 774 739 456 119 218 306 86 43 70 120 8 0 19 15 22 21 8 10 11 4 8 0 0 0
0 0 0 0 0 0 0 0 0 0 0 0 0 0 0 0 0 0 2 0 0 29 36 147 480 529 502 399 249 197 239 55 22 13 26 37 15 19 11 2 1 12 9 1 0 0 0 0 0
0 0 0 0 0 0 0 0 0 0 0 0 0 0 0 0 0 0 0 0 0 1 1 1 82 244 272 132 68 56 101 76 43 10 0 4 102 72 34 20 4 9 3 0 0 0 0 0 0
0 0 0 0 0 0 0 0 0 0 0 0 0 0 0 0 0 0 0 0 1 1 0 1 0 44 45 4 0 0 0 3 0 0 0 0 0 0 0 0 10 0 0 0 0 0 0 0 0
0 0 0 0 0 0 0 0 0 0 0 0 0 0 0 0 0 0 1 1 1 1 0 0 0 1 0 0 0 0 0 0 0 0 0 0 0 0 0 0 2 3 0 0 0 0 0 0 0
0 0 0 0 0 0 0 0 0 0 0 0 0 0 0 0 0 0 0 0 0 1 1 0 0 1 1 0 0 0 0 0 0 0 0 0 0 0 0 0 0 0 0 0 0 0 0 0 0
0 0 0 0 0 0 0 0 0 0 0 0 0 0 0 0 0 0 0 0 0 0 0 0 0 0 1 1 0 0 0 0 0 0 0 0 0 0 0 0 0 0 0 0 0 0 0 0 0
0 0 0 0 0 0 0 0 0 0 0 0 0 0 0 0 0 0 0 0 0 0 0 0 0 0 0 1 0 0 0 0 0 0 0 0 0 0 0 0 0 0 0 0 0 0 0 0 0
0 0 0 0 0 0 0 0 0 0 0 0 0 0 0 0 0 0 0 0 0 0 0 0 0 0 0 0 0 0 0 0 0 0 0 0 0 0 0 0 0 0 0 0 0 0 0 0 0
0 0 0 0 0 0 0 0 0 0 0 0 0 0 0 0 0 0 0 0 0 0 0 0 0 0 0 0 0 0 0 0 0 0 0 0 0 0 0 0 0 0 0 0 0 0 0 0 0
0 0 0 0 0 0 0 0 0 0 0 0 0 0 0 0 0 0 0 0 0 0 0 0 0 0 0 0 0 0 0 0 0 0 0 0 0 0 0 0 0 0 0 0 0 0 0 0 0
0 0 0 0 0 0 0 0 0 0 0 0 0 0 0 0 0 0 0 0 0 0 0 0 0 0 0 0 0 0 0 0 0 0 0 0 0 0 0 0 0 0 0 0 0 0 0 0 0
0 0 0 0 0 0 0 0 0 0 0 0 0 0 0 0 0 0 0 0 0 0 0 0 0 0 0 0 0 0 0 0 0 0 0 0 0 0 0 0 0 0 0 0 0 0 0 0 0
0 0 0 0 0 0 0 0 0 0 0 0 0 0 0 0 0 0 0 0 0 0 0 0 0 0 0 0 0 0 1 0 1 1 0 0 0 0 0 0 0 0 0 0 0 0 0 0 0
0 0 0 0 0 0 0 0 0 0 0 0 0 0 0 0 0 0 0 0 0 0 0 0 0 0 0 0 0 0 6 1 0 2 2 3 8 7 0 0 0 0 0 0 0 0 0 0 0
0 0 0 0 0 0 0 0 0 0 0 0 0 0 0 0 0 0 0 0 0 0 0 0 0 0 0 0 0 0 0 8 12 11 7 11 9 15 12 8 2 0 0 0 0 0 0 0 0
0 0 0 0 0 0 0 0 0 0 0 0 0 0 0 0 0 0 0 0 0 0 0 0 0 0 0 0 0 0 1 6 15 21 15 14 17 18 27 23 24 11 2 0 0 0 0 0 0
0 0 0 0 0 0 0 0 0 0 0 0 0 0 0 0 0 0 0 0 0 0 0 0 0 0 0 0 0 1 11 7 12 27 28 29 18 6 2 8 7 7 3 3 0 0 0 0 0
0 0 0 0 0 0 0 0 0 0 0 0 0 0 0 0 0 0 0 0 0 0 0 0 0 0 0 0 0 3 2 0 12 21 0 0 0 0 0 0 0 0 0 0 0 0 0 0 0
0 0 0 0 0 0 0 0 0 0 0 0 0 0 0 0 0 0 0 0 0 0 0 0 0 0 0 0 0 1 0 0 1 0 0 0 0 0 0 0 0 0 0 0 0 0 0 0 0
0 0 0 0 0 0 0 0 0 0 0 0 0 0 0 0 0 0 0 0 0 0 0 0 0 0 0 0 0 0 0 0 0 0 0 0 0 0 0 0 0 0 0 0 0 0 0 0 0
0 0 0 0 0 0 0 0 0 0 0 0 0 0 0 0 0 0 0 0 0 0 0 0 0 0 0 0 0 0 0 0 0 0 0 0 0 0 0 0 0 0 0 0 0 0 0 0 0
0 0 0 0 0 0 0 0 0 0 0 0 0 0 0 0 0 0 0 0 0 0 0 0 0 0 0 0 0 0 0 0 0 0 0 0 0 0 0 0 0 0 0 0 0 0 0 0 0
0 0 0 0 0 0 0 0 0 0 0 0 0 0 0 0 0 0 0 0 0 0 0 0 0 0 0 0 0 0 0 0 0 0 0 0 0 0 0 0 0 0 0 0 0 0 0 0 0
0 0 0 0 0 0 0 0 0 0 0 0 0 0 0 0 0 0 0 0 0 0 0 0 0 0 0 0 0 0 0 0 0 0 0 0 0 0 0 0 0 0 0 0 0 0 0 0 0
0 0 0 0 0 0 0 0 0 0 0 0 0 0 0 0 0 0 0 0 0 0 0 0 0 0 0 0 0 0 0 0 0 0 0 0 0 0 0 0 0 0 0 0 0 0 0 0 0
CIN
-0 -0 -0 -0 -0 -0 -0 -0 -0 -0 -0 -0 -0 -0 -0 -0 -0 -0 -0 -0 -91 -50 -71 -7 -3 -0 -0 -0 -2 -8 -10 -51 -51 -104 -143 -139 -160 -140 -0 -0 -69 -0 -159 -1 -0 -87 -0 -0 -0
-0 -0 -0 -0 -0 -0 -0 -0 -0 -0 -0 -0 -0 -0 -0 -0 -0 -115 -116 -4 -5 -12 -4 -5 -1 -0 -0 -0 -0 -12 -53 -54 -43 -47 -128 -109 -0 -0 -0 -0 -0 -0 -0 -1 -1 -0 -0 -0 -0
-0 -0 -0 -0 -0 -0 -0 -0 -0 -0 -0 -0 -0 -0 -0 -0 -0 -0 -114 -57 -34 -31 -21 -5 -1 -0 -0 -0 -6 -11 -36 -40 -28 -48 -136 -0 -0 -0 -0 -0 -0 -0 -0 -0 -0 -0 -0 -3 -0
-0 -0 -0 -0 -0 -0 -0 -0 -0 -0 -0 -0 -0 -0 -0 -0 -0 -36 -60 -71 -88 -59 -20 -2 -1 -0 -0 -1 -25 -21 -21 -37 -58 -67 -144 -4 -0 -0 -0 -0 -0 -0 -0 -0 -0 -0 -0 -0 -2
-0 -0 -0 -0 -0 -0 -0 -0 -0 -0 -0 -0 -0 -0 -0 -0 -0 -0 -119 -79 -112 -73 -16 -4 -1 -0 -0 -2 -82 -43 -29 -87 -142 -120 -115 -0 -0 -0 -2 -1 -0 -0 -0 -0 -0 -0 -0 -0 -0
-0 -0 -0 -0 -0 -0 -0 -0 -0 -0 -0 -0 -0 -0 -0 -0 -0 -0 -64 -0 -0 -88 -24 -19 -1 -1 -0 -5 -25 -41 -37 -105 -64 -108 -68 -113 -1 -0 -0 -0 -0 -0 -0 -0 -0 -0 -0 -0 -0
-0 -0 -0 -0 -0 -0 -0 -0 -0 -0 -0 -0 -0 -0 -0 -0 -0 -0 -0 -0 -0 -12 -20 -21 -81 -14 -3 -28 -78 -93 -92 -120 -121 -33 -0 -7 -84 -100 -1 -1 -0 -0 -0 -0 -0 -0 -0 -0 -0
-0 -0 -0 -0 -0 -0 -0 -0 -0 -0 -0 -0 -0 -0 -0 -0 -0 -0 -0 -0 -0 -0 -0 -0 -0 -131 -81 -110 -0 -0 -0 -3 -0 -0 -0 -0 -0 -0 -0 -0 -1 -0 -0 -0 -0 -0 -0 -0 -0
-0 -0 -0 -0 -0 -0 -0 -0 -0 -0 -0 -0 -0 -0 -0 -0 -0 -0 -0 -0 -0 -0 -0 -0 -0 -0 -0 -0 -0 -0 -0 -0 -0 -0 -0 -0 -0 -0 -0 -0 -1 -0 -0 -0 -0 -0 -0 -0 -0
-0 -0 -0 -0 -0 -0 -0 -0 -0 -0 -0 -0 -0 -0 -0 -0 -0 -0 -0 -0 -0 -0 -0 -0 -0 -0 -0 -0 -0 -0 -0 -0 -0 -0 -0 -0 -0 -0 -0 -0 -0 -0 -0 -0 -0 -0 -0 -0 -0
-0 -0 -0 -0 -0 -0 -0 -0 -0 -0 -0 -0 -0 -0 -0 -0 -0 -0 -0 -0 -0 -0 -0 -0 -0 -0 -0 -0 -0 -0 -0 -0 -0 -0 -0 -0 -0 -0 -0 -0 -0 -0 -0 -0 -0 -0 -0 -0 -0
-0 -0 -0 -0 -0 -0 -0 -0 -0 -0 -0 -0 -0 -0 -0 -0 -0 -0 -0 -0 -0 -0 -0 -0 -0 -0 -0 -0 -0 -0 -0 -0 -0 -0 -0 -0 -0 -0 -0 -0 -0 -0 -0 -0 -0 -0 -0 -0 -0
-0 -0 -0 -0 -0 -0 -0 -0 -0 -0 -0 -0 -0 -0 -0 -0 -0 -0 -0 -0 -0 -0 -0 -0 -0 -0 -0 -0 -0 -0 -0 -0 -0 -0 -0 -0 -0 -0 -0 -0 -0 -0 -0 -0 -0 -0 -0 -0 -0
-0 -0 -0 -0 -0 -0 -0 -0 -0 -0 -0 -0 -0 -0 -0 -0 -0 -0 -0 -0 -0 -0 -0 -0 -0 -0 -0 -0 -0 -0 -0 -0 -0 -0 -0 -0 -0 -0 -0 -0 -0 -0 -0 -0 -0 -0 -0 -0 -0
-0 -0 -0 -0 -0 -0 -0 -0 -0 -0 -0 -0 -0 -0 -0 -0 -0 -0 -0 -0 -0 -0 -0 -0 -0 -0 -0 -0 -0 -0 -0 -0 -0 -0 -0 -0 -0 -0 -0 -0 -0 -0 -0 -0 -0 -0 -0 -0 -0
-0 -0 -0 -0 -0 -0 -0 -0 -0 -0 -0 -0 -0 -0 -0 -0 -0 -0 -0 -0 -0 -0 -0 -0 -0 -0 -0 -0 -0 -0 -0 -0 -0 -0 -0 -0 -0 -0 -0 -0 -0 -0 -0 -0 -0 -0 -0 -0 -0
-0 -0 -0 -0 -0 -0 -0 -0 -0 -0 -0 -0 -0 -0 -0 -0 -0 -0 -0 -0 -0 -0 -0 -0 -0 -0 -0 -0 -0 -0 -0 -0 -22 -25 -0 -0 -0 -0 -0 -0 -0 -0 -0 -0 -0 -0 -0 -0 -0
-0 -0 -0 -0 -0 -0 -0 -0 -0 -0 -0 -0 -0 -0 -0 -0 -0 -0 -0 -0 -0 -0 -0 -0 -0 -0 -0 -0 -0 -0 -44 -46 -31 -55 -0 -24 -0 -0 -0 -0 -0 -0 -0 -0 -0 -0 -0 -0 -0
-0 -0 -0 -0 -0 -0 -0 -0 -0 -0 -0 -0 -0 -0 -0 -0 -0 -0 -0 -0 -0 -0 -0 -0 -0 -0 -0 -0 -0 -18 -34 -34 -29 -38 -41 -41 -38 -47 -0 -0 -0 -0 -0 -0 -0 -0 -0 -0 -0
-0 -0 -0 -0 -0 -0 -0 -0 -0 -0 -0 -0 -0 -0 -0 -0 -0 -0 -0 -0 -0 -0 -0 -0 -0 -0 -0 -0 -0 -0 -0 -26 -31 -48 -48 -50 -52 -51 -55 -72 -54 -5 -0 -0 -0 -0 -0 -0 -0
-0 -0 -0 -0 -0 -0 -0 -0 -0 -0 -0 -0 -0 -0 -0 -0 -0 -0 -0 -0 -0 -0 -0 -0 -0 -0 -0 -0 -0 -0 -29 -36 -24 -21 -31 -44 -56 -63 -39 -37 -24 -48 -46 -60 -0 -0 -0 -0 -0
-0 -0 -0 -0 -0 -0 -0 -0 -0 -0 -0 -0 -0 -0 -0 -0 -0 -0 -0 -0 -0 -0 -0 -0 -0 -0 -0 -0 -0 -30 -53 -22 -20 -37 -47 -37 -38 -52 -53 -43 -47 -49 -60 -62 -0 -0 -0 -0 -0
-0 -0 -0 -0 -0 -0 -0 -0 -0 -0 -0 -0 -0 -0 -0 -0 -0 -0 -0 -0 -0 -0 -0 -0 -0 -0 -0 -0 -0 -74 -77 -0 -40 -23 -4 -0 -0 -0 -0 -0 -0 -0 -0 -0 -0 -0 -0 -0 -0
-0 -0 -0 -0 -0 -0 -0 -0 -0 -0 -0 -0 -0 -0 -0 -0 -0 -0 -0 -0 -0 -0 -0 -0 -0 -0 -0 -0 -0 -30 -0 -0 -57 -0 -0 -0 -0 -0 -0 -0 -0 -0 -0 -0 -0 -0 -0 -0 -0
-0 -0 -0 -0 -0 -0 -0 -0 -0 -0 -0 -0 -0 -0 -0 -0 -0 -0 -0 -0 -0 -0 -0 -0 -0 -0 -0 -0 -0 -0 -0 -0 -0 -0 -0 -0 -0 -0 -0 -0 -0 -0 -0 -0 -0 -0 -0 -0 -0
-0 -0 -0 -0 -0 -0 -0 -0 -0 -0 -0 -0 -0 -0 -0 -0 -0 -0 -0 -0 -0 -0 -0 -0 -0 -0 -0 -0 -0 -0 -0 -0 -0 -0 -0 -0 -0 -0 -0 -0 -0 -0 -0 -0 -0 -0 -0 -0 -0
-0 -0 -0 -0 -0 -0 -0 -0 -0 -0 -0 -0 -0 -0 -0 -0 -0 -0 -0 -0 -0 -0 -0 -0 -0 -0 -0 -0 -0 -0 -0 -0 -0 -0 -0 -0 -0 -0 -0 -0 -0 -0 -0 -0 -0 -0 -0 -0 -0
-0 -0 -0 -0 -0 -0 -0 -0 -0 -0 -0 -0 -0 -0 -0 -0 -0 -0 -0 -0 -0 -0 -0 -0 -0 -0 -0 -0 -0 -0 -0 -0 -0 -0 -0 -0 -0 -0 -0 -0 -0 -0 -0 -0 -0 -0 -0 -0 -0
-0 -0 -0 -0 -0 -0 -0 -0 -0 -0 -0 -0 -0 -0 -0 -0 -0 -0 -0 -0 -0 -0 -0 -0 -0 -0 -0 -0 -0 -0 -0 -0 -0 -0 -0 -0 -0 -0 -0 -0 -0 -0 -0 -0 -0 -0 -0 -0 -0
-0 -0 -0 -0 -0 -0 -0 -0 -0 -0 -0 -0 -0 -0 -0 -0 -0 -0 -0 -0 -0 -0 -0 -0 -0 -0 -0 -0 -0 -0 -0 -0 -0 -0 -0 -0 -0 -0 -0 -0 -0 -0 -0 -0 -0 -0 -0 -0 -0
Wind_Speed
5 6 3 5 5 6 1 3 1 2 2 4 3 5 7 4 3 3 1 5 10 6 7 6 11 13 15 15 13 13 13 14 15 16 17 17 16 17 18 17 14 16 16 16 17 19 19 17 17
4 4 5 3 6 3 4 3 5 3 6 8 7 3 6 3 3 6 4 6 9 8 7 7 11 13 15 14 12 13 13 14 14 17 17 16 16 17 17 15 15 16 17 17 17 18 18 17 15
5 5 4 5 4 4 5 4 5 3 7 1 5 5 3 3 3 7 5 9 8 7 6 7 13 15 15 14 13 12 14 13 14 17 17 16 15 16 17 15 15 15 16 15 16 17 17 17 15
5 5 5 4 3 4 5 6 5 6 2 6 5 6 2 1 6 7 10 9 9 7 5 6 13 15 16 13 14 13 13 13 14 14 17 15 15 16 16 15 13 14 14 13 14 16 16 17 16
5 3 3 2 3 3 3 4 6 5 3 3 2 3 3 3 8 14 11 9 10 7 5 5 10 14 15 14 14 13 13 14 13 13 14 14 15 13 13 13 16 14 14 13 12 14 15 16 16
4 3 4 2 3 1 2 3 5 2 3 3 5 5 3 4 11 10 10 7 7 9 5 5 8 9 12 13 13 12 12 13 12 12 12 12 12 13 13 14 14 13 12 12 12 12 13 14 14
5 4 5 4 2 1 5 6 5 6 7 3 8 5 2 3 6 11 9 7 7 7 6 3 6 7 9 10 10 11 10 11 10 10 10 10 10 10 11 10 12 12 11 11 10 10 11 12 12
5 5 6 4 5 4 3 4 5 5 2 3 5 7 6 6 8 11 9 7 6 6 5 4 4 7 6 6 8 9 9 10 9 9 9 9 10 10 8 7 10 11 10 8 8 9 10 11 11
3 4 3 6 7 4 5 4 3 1 7 1 2 6 6 15 9 13 10 6 6 5 6 6 5 6 8 6 6 8 8 7 7 7 8 6 4 5 6 6 9 10 8 7 7 8 9 10 10
5 2 9 6 6 6 7 6 9 5 4 1 2 3 14 15 13 13 13 12 11 8 5 6 5 4 7 5 5 5 5 4 4 4 5 4 4 4 5 6 7 7 7 6 5 5 7 7 4
2 4 3 3 4 6 8 7 4 8 3 7 9 15 16 16 11 10 10 12 12 9 6 5 6 5 4 6 3 2 2 3 3 5 4 3 3 3 3 2 2 2 4 3 4 3 3 4 3
4 2 4 5 1 7 8 8 5 5 6 8 13 24 17 18 15 13 10 11 10 8 8 7 6 6 5 3 4 3 3 3 3 3 4 4 2 2 1 1 1 1 1 1 2 1 3 4 4
4 5 5 6 4 6 7 2 6 5 2 8 10 17 17 16 14 10 11 8 9 9 8 10 7 7 5 5 3 3 4 4 4 4 4 3 3 3 3 2 1 1 0 1 1 2 3 3 4
5 11 9 5 4 1 6 1 2 4 5 8 13 15 16 17 16 10 9 11 10 11 10 10 10 9 8 6 7 6 4 4 4 4 4 5 4 4 3 3 3 3 2 1 1 2 1 2 3
6 10 14 6 2 2 5 1 6 3 8 12 12 13 11 11 11 15 14 12 13 11 11 12 12 9 9 9 7 5 5 4 4 4 5 4 4 4 4 3 3 3 1 1 1 2 1 3 3
4 5 4 5 4 2 4 10 6 6 11 11 9 8 8 9 13 10 11 11 11 10 11 10 10 11 10 7 6 4 4 4 4 4 4 6 6 4 3 2 3 2 2 2 2 2 3 3 3
6 10 7 7 6 3 4 7 6 7 9 10 9 9 9 8 8 8 9 11 12 12 12 11 9 11 11 7 5 5 6 5 5 3 4 5 5 6 5 4 4 3 2 2 1 1 2 2 3
9 8 5 7 5 2 4 7 2 6 9 13 10 8 8 9 17 13 10 9 11 12 12 13 10 11 8 6 4 3 5 4 4 4 4 5 4 6 5 3 3 3 3 2 2 3 2 2 3
5 7 5 4 3 5 8 8 9 5 3 7 9 8 10 13 9 7 9 9 8 8 11 13 12 10 8 4 5 6 6 4 3 3 6 6 5 5 5 3 3 3 4 3 3 1 2 2 2
8 8 6 1 1 3 3 11 4 6 8 9 12 11 11 6 7 7 6 8 10 13 14 13 14 12 11 9 6 3 4 3 3 4 5 6 6 6 5 6 5 5 3 4 3 2 1 1 1
10 11 6 4 4 1 3 8 4 6 4 4 8 7 6 12 12 8 8 8 6 9 12 12 12 12 12 11 5 2 2 2 3 3 3 4 6 6 5 3 2 3 3 3 3 2 3 1 1
17 4 6 5 5 5 4 7 6 7 10 7 9 9 11 11 7 6 8 7 7 6 4 6 7 9 9 10 9 9 7 6 4 4 4 2 2 3 4 3 4 3 2 3 1 2 1 2 1
11 6 6 4 3 4 2 1 8 2 10 10 11 14 13 10 9 10 9 6 4 4 5 5 5 6 9 12 12 10 8 4 4 3 8 7 6 7 6 6 6 5 4 5 5 4 4 2 2
7 4 6 4 2 4 8 8 6 8 9 9 18 11 12 9 8 7 6 7 5 3 3 5 6 7 7 12 13 13 12 7 6 7 7 5 4 4 6 7 6 6 5 5 5 5 6 4 5
10 9 2 1 2 10 0 4 13 5 8 8 10 13 12 9 9 8 9 8 6 6 6 5 7 8 8 13 13 10 9 11 10 9 8 7 4 3 5 5 5 4 5 6 6 6 6 6 4
7 10 6 8 5 2 2 8 9 10 4 8 9 8 8 11 9 9 8 7 7 6 5 6 7 6 7 12 9 7 10 8 7 8 7 5 5 4 5 6 6 6 7 6 6 5 4 6 5
6 8 6 7 2 4 6 8 10 4 10 7 9 6 11 11 12 12 8 7 7 6 7 7 6 4 4 7 8 8 9 12 10 10 8 7 7 6 7 7 7 6 7 7 6 5 6 5 5
9 10 4 2 5 4 5 5 7 5 11 12 10 14 9 6 8 7 7 7 6 5 4 4 4 5 5 7 8 8 9 12 11 11 9 8 7 6 7 6 6 7 7 7 6 5 5 6 4
3 4 2 4 5 7 1 8 10 15 18 14 11 3 6 8 8 8 7 5 6 5 5 5 6 7 7 6 8 10 9 12 10 11 8 8 7 7 7 6 6 7 6 6 6 6 6 6 5
2 6 12 8 10 1 3 9 3 9 9 6 6 9 7 6 7 7 6 6 6 6 6 6 6 7 6 6 9 10 11 11 11 10 8 7 8 6 7 7 7 7 6 6 6 6 5 4 4
Wind_Direction
14 3 69 45 53 63 255 224 149 157 74 332 76 121 136 68 127 197 325 133 126 117 115 101 120 116 113 112 112 112 110 110 107 99 91 89 89 86 82 78 75 79 83 86 87 81 72 68 74
11 27 45 71 83 61 267 266 188 212 147 141 87 73 47 81 88 118 104 128 123 121 116 116 120 120 117 112 115 108 102 99 93 106 94 91 92 88 89 91 85 91 89 89 89 78 69 67 83
60 53 73 88 98 183 208 198 170 132 161 134 91 60 114 113 108 149 129 126 119 114 121 133 130 128 121 117 115 108 107 103 89 109 101 96 93 94 94 89 92 85 88 93 86 77 70 66 74
51 20 33 88 228 246 196 186 177 137 190 50 113 64 38 152 169 149 125 122 111 96 96 127 131 130 124 123 117 110 107 103 95 92 104 96 100 101 100 100 93 91 93 91 85 79 71 65 73
42 56 69 53 265 271 242 180 165 136 103 86 74 166 63 29 113 126 125 124 125 114 111 119 134 134 128 123 119 114 107 104 101 102 105 108 111 103 92 98 99 91 88 85 83 79 72 68 72
46 93 77 220 250 269 122 168 149 95 81 148 87 95 100 133 132 128 116 119 124 121 118 122 117 129 129 125 119 113 112 113 117 115 101 96 114 111 101 93 92 93 92 82 78 74 73 69 68
120 102 181 178 218 118 195 143 156 144 127 194 149 92 50 155 156 127 116 112 114 113 124 123 119 121 112 114 118 117 118 121 117 109 99 83 82 105 97 95 101 99 91 83 74 66 63 66 63
106 100 144 182 181 221 176 139 130 133 123 94 150 164 170 184 157 120 117 116 115 111 114 101 102 111 105 118 116 116 119 113 114 111 101 87 77 77 81 84 90 99 95 85 72 59 51 48 52
98 71 174 182 155 223 171 131 124 82 116 150 152 156 169 138 137 124 125 119 128 129 145 143 140 140 136 137 132 122 125 127 123 108 99 85 86 81 79 91 95 98 95 81 68 55 39 27 21
91 128 205 195 188 190 170 158 159 130 115 34 57 46 123 139 155 151 152 159 165 165 179 163 148 160 138 136 137 129 125 127 125 125 114 103 102 101 93 79 78 89 85 63 53 52 36 21 14
1 199 236 253 223 162 164 148 160 124 209 210 181 151 145 155 165 166 164 170 172 172 168 186 155 161 145 138 126 129 138 142 144 144 136 128 101 91 90 88 68 76 62 37 33 24 20 3 8
350 331 311 308 213 148 171 131 148 171 213 185 169 159 152 165 173 176 173 172 162 173 177 175 167 163 167 132 142 159 155 163 161 168 153 140 129 114 115 105 135 97 46 47 36 0 333 349 348
185 318 326 329 298 117 121 214 181 213 54 123 137 158 163 172 178 179 179 179 165 173 185 180 166 170 169 161 160 166 180 174 174 169 168 146 155 167 161 192 194 202 178 248 307 321 333 338 337
343 325 325 336 317 141 137 114 174 217 123 132 157 174 176 179 181 175 178 181 183 175 188 178 181 180 169 178 177 184 181 192 180 177 178 177 172 175 189 194 216 239 218 279 257 255 290 300 317
11 331 327 278 229 226 130 51 236 151 152 160 182 185 189 190 174 190 188 189 186 184 184 184 181 183 183 184 188 181 186 176 184 187 182 189 182 185 182 199 220 222 218 250 290 290 312 326 324
47 311 289 291 167 204 119 235 236 156 148 182 191 199 201 207 197 185 190 188 192 187 180 188 184 184 185 186 177 172 181 173 184 189 185 187 184 187 191 222 241 224 201 208 251 297 322 299 300
216 213 206 277 210 141 154 245 232 158 166 193 201 205 210 210 224 204 187 189 188 191 186 186 180 180 185 179 173 174 173 188 196 179 181 181 184 178 186 207 235 219 214 216 218 258 227 273 283
176 209 218 195 207 170 185 256 261 194 169 199 208 211 215 213 218 209 201 197 196 195 191 189 186 184 177 170 155 164 176 175 157 172 172 181 198 184 196 208 221 206 230 257 232 242 241 264 288
200 186 210 229 176 149 208 229 237 199 203 218 227 223 221 223 230 223 212 200 188 198 192 190 183 183 168 161 173 194 191 170 173 181 185 185 203 203 205 204 217 209 224 237 244 288 291 314 355
246 203 205 298 34 143 166 245 258 186 220 215 209 218 225 216 217 217 212 194 188 192 195 193 194 182 184 184 188 172 160 165 172 185 199 202 201 208 198 200 201 202 210 241 242 200 281 276 257
237 217 204 181 127 34 118 292 225 231 220 222 232 230 230 215 206 209 203 202 183 187 186 190 191 187 187 179 143 99 88 86 151 182 196 219 209 209 204 246 227 206 193 222 209 192 193 249 265
240 211 167 146 127 211 152 267 256 228 233 205 235 224 230 211 203 196 198 189 187 200 161 174 183 182 186 168 171 176 181 182 187 185 199 160 40 72 87 98 99 98 115 104 98 116 158 170 300
234 163 173 174 166 126 202 170 258 106 242 241 235 230 231 217 201 194 191 185 194 181 190 201 188 187 179 180 185 184 181 196 140 119 88 80 63 58 60 68 73 71 70 68 69 70 61 39 71
163 81 46 57 77 261 209 179 247 195 202 228 232 227 223 202 199 189 182 164 182 198 209 201 204 207 187 186 188 189 180 150 131 123 115 102 86 67 56 60 64 63 63 70 71 71 63 55 58
178 140 208 235 189 230 243 202 240 227 235 227 226 231 214 181 179 180 186 188 183 193 204 213 202 214 195 190 188 179 174 149 139 138 135 136 125 88 74 75 77 77 77 72 70 68 59 47 65
170 185 170 182 208 231 35 234 245 222 258 244 243 242 182 181 184 185 187 190 190 194 198 200 194 199 192 194 170 140 142 127 121 126 126 111 109 112 115 91 76 75 72 74 73 67 61 64 58
186 199 176 97 16 60 209 284 301 262 274 255 244 215 204 186 181 183 177 189 183 184 199 198 174 157 150 136 128 124 128 122 129 106 108 117 121 113 86 84 87 76 74 68 69 64 60 56 56
187 155 139 45 141 247 265 279 236 269 235 240 225 225 205 176 161 158 172 181 183 178 171 147 133 140 120 117 120 117 128 118 115 119 124 117 108 102 101 95 88 79 74 71 74 70 56 64 42
157 170 105 114 154 189 238 260 211 212 218 228 231 195 177 174 170 165 173 178 169 151 161 146 131 129 108 103 112 119 118 113 114 114 120 117 110 111 110 110 99 92 90 82 78 70 55 60 50
327 184 191 195 211 214 168 260 240 238 269 268 217 185 180 171 169 156 164 166 171 168 162 157 137 127 127 124 122 119 116 117 116 117 119 119 120 113 122 120 109 100 93 86 84 83 71 66 57